[[{"header":{"parameterUnit":"m.s-1","parameterCategory":2,"la1":30.2991,"la2":30.254,"lo1":-89.0895,"lo2":-89.0444,"dy":0.0017,"dx":0.0017,"nx":28,"ny":28,"refTime":"2024-10-12T09:00:00:Z","depth":"0","parameterNumber":2,"parameterNumberName":"U-component_of_CURRENTS"},"data":[0,0,0,0,0,0,0,0,0,0,0,0,0,0,0,0,0,0,0,0,0,0,0,0,0,0,0,0,0,0,0,0,0,0,0,0,0,0,0,0,0,0,0,0,0,0,0,0,0,0,0,0,0,0,0,0,0,0,0.4083,0.4084,0,0.4118,0.4118,0.4118,0.4138,0.4139,0.4139,0.414,0.4144,0.4144,0.4144,0,0,0,0,0,0,0,0,0,0,0,0,0,0.4025,0.4026,0.4083,0.4084,0.4085,0.4118,0.4118,0.4118,0.4138,0.4139,0.414,0.414,0.4145,0.4144,0.4143,0,0,0,0,0,0,0,0,0,0,0,0,0,0.4049,0.4026,0.4083,0.4103,0.4106,0.4118,0.4118,0.4117,0.4138,0.4139,0.414,0.4141,0.4145,0.4144,0.4143,0.4121,0,0,0.4141,0.4141,0,0,0,0,0,0,0,0,0.4047,0.405,0.4099,0.4102,0.4105,0.4129,0.4099,0.4119,0.4138,0.412,0.414,0.4141,0.4139,0.4139,0.4136,0.4122,0.4122,0.4141,0.4141,0.4141,0.414,0,0,0,0,0,0,0,0.4046,0.4049,0.4091,0.4101,0.4104,0.4108,0.4111,0.4103,0.4119,0.4122,0.4125,0.4137,0.414,0.4137,0.4137,0.4122,0.4141,0.4141,0.414,0.414,0.4151,0.4151,0,0,0,0,0,0,0.4052,0.4047,0.409,0.4093,0.4084,0.4108,0.4112,0.4116,0.412,0.4124,0.4136,0.4138,0.4138,0.4137,0.4137,0.4169,0.4141,0.414,0.414,0.415,0.4151,0.4151,0,0,0,0,0,0,0.405,0.4055,0.4089,0.4076,0.4081,0.4109,0.4113,0.4116,0.4118,0.4133,0.4134,0.4135,0.4138,0.4138,0.4138,0.4167,0.414,0.4139,0.4149,0.415,0.4151,0.4195,0,0,0,0,0,0,0.4048,0.4054,0.4049,0.4076,0.4082,0.4103,0.4113,0.4117,0.4127,0.4129,0.4132,0.4133,0.4139,0.4139,0.4137,0.4165,0.4139,0.4148,0.415,0.4151,0.4193,0.4197,0.4201,0,0,0,0,0,0.4046,0.4038,0.4048,0.4054,0.4077,0.4104,0.4107,0.4126,0.4126,0.4128,0.4131,0.4133,0.4147,0.4138,0.4136,0.4165,0.4148,0.4149,0.4151,0.4191,0.4196,0.4201,0,0,0,0,0,0,0.4004,0.4041,0.4052,0.4054,0.4082,0.411,0.4108,0.4122,0.4124,0.4122,0.4129,0.4131,0.4147,0.4141,0.4132,0.4172,0.4152,0.4153,0.4183,0.4188,0.4193,0.4129,0.4138,0,0,0,0,0,0.3995,0.3996,0.404,0.4037,0.4052,0.4077,0.4086,0.4104,0.4117,0.4119,0.4123,0.413,0.415,0.4156,0.4161,0.417,0.4182,0.419,0.4195,0.4199,0.4146,0.4218,0.4224,0.4156,0.4156,0.4156,0,0,0.3973,0.3995,0.3993,0.4028,0.4044,0.4056,0.4083,0.4099,0.4102,0.4117,0.4108,0.4138,0.4153,0.4177,0.4184,0.4177,0.4233,0.4201,0.4204,0.4147,0.422,0.4227,0.4233,0.4157,0.4157,0.4157,0,0,0.3938,0.3956,0.3951,0.3976,0.4014,0.4034,0.404,0.4073,0.4082,0.409,0.4113,0.4144,0.4158,0.4183,0.4197,0.4218,0.4252,0.4245,0.4218,0.4292,0.4298,0.4303,0.4367,0.4377,0.4251,0.4251,0.4252,0,0.391,0.3918,0.3953,0.3963,0.398,0.4022,0.4029,0.404,0.4066,0.408,0.4088,0.414,0.4153,0.4197,0.4205,0.4226,0.4273,0.4204,0.4298,0.4303,0.4308,0.4372,0.4383,0.4254,0.4254,0.4253,0.4253,0,0.3883,0.3891,0.389,0.3915,0.3937,0.3949,0.3989,0.4004,0.4025,0.405,0.4095,0.4125,0.4161,0.4193,0.4195,0.4249,0.4277,0.4299,0.4286,0.4317,0.4383,0.4394,0.4257,0.4256,0.4256,0.4255,0,0,0.3816,0.3862,0.3861,0.3871,0.3918,0.3931,0.3947,0.3986,0.4002,0.4037,0.4069,0.4106,0.4142,0.4155,0.42,0.4242,0.4332,0.4274,0.4277,0.4337,0.4504,0.4479,0.4488,0.4396,0.4397,0.4398,0.4552,0,0.3785,0.3791,0.3827,0.3827,0.3838,0.3892,0.3903,0.3944,0.3988,0.4027,0.4081,0.4123,0.4129,0.417,0.4213,0.4303,0.4354,0.4286,0.446,0.4463,0.4438,0.4496,0.4307,0.4423,0.4563,0.4564,0.4566,0,0.3748,0.3762,0.3763,0.38,0.381,0.3815,0.3867,0.3887,0.396,0.4004,0.4065,0.4115,0.4179,0.4184,0.4327,0.4297,0.4374,0.4435,0.4445,0.4391,0.4455,0.4406,0.4437,0.4226,0.4582,0.458,0.4579,0,0.3685,0.3715,0.3712,0.3724,0.3773,0.3784,0.381,0.3878,0.3903,0.3995,0.4035,0.4131,0.4183,0.4291,0.4402,0.4387,0.4564,0.4581,0.4628,0.4629,0.4474,0.4458,0.4303,0.4663,0.4663,0.4663,0.4662,0,0.3638,0.3629,0.3681,0.3676,0.3677,0.3735,0.3747,0.3801,0.3877,0.3916,0.4012,0.4065,0.4208,0.4327,0.4428,0.4562,0.4605,0.4605,0.4662,0.4489,0.4473,0.4285,0.4219,0.4668,0.4667,0.4666,0.4665,0,0.3553,0.359,0.3583,0.363,0.3643,0.3639,0.3691,0.3713,0.3799,0.3858,0.3889,0.4031,0.4188,0.4339,0.4531,0.4588,0.4589,0.4766,0.4544,0.4568,0.438,0.4327,0.4167,0.4066,0.4833,0.4833,0.4833,0,0.3503,0.3497,0.3529,0.3525,0.3539,0.3551,0.3569,0.3659,0.3697,0.3835,0.3865,0.4022,0.414,0.4413,0.4554,0.4749,0.4579,0.4652,0.4558,0.4318,0.4302,0.4168,0.4085,0.4398,0.4395,0.4392,0.439,0,0.3409,0.3425,0.343,0.3424,0.3432,0.3441,0.348,0.35,0.3621,0.3693,0.3813,0.392,0.4169,0.4264,0.4495,0.4592,0.4378,0.4601,0.4404,0.3967,0.3757,0.3705,0.4353,0.4365,0.4367,0.4369,0.437,0.4371,0.3335,0.3317,0.3329,0.3315,0.3326,0.333,0.3309,0.3386,0.3445,0.3541,0.3706,0.3792,0.3939,0.4238,0.4329,0.4214,0.426,0.4057,0.4028,0.3926,0.3736,0.4322,0.4365,0.4368,0.437,0.4372,0.4373,0,0.323,0.3228,0.3218,0.3202,0.3173,0.3216,0.3247,0.3228,0.3271,0.3401,0.3512,0.3536,0.3618,0.3712,0.3717,0.3617,0.3531,0.3482,0.3192,0.3158,0.3712,0.3593,0.3403,0.3403,0.3404,0.3404,0.3404,0.3404,0.3175,0.3131,0.3133,0.3058,0.3046,0.299,0.2989,0.2994,0.3048,0.3041,0.3014,0.3091,0.3142,0.3166,0.3031,0.2998,0.2761,0.2675,0.2694,0.2996,0.3044,0.3089,0.2954,0.2634,0.2633,0.1991,0.1985,0.1981]},{"header":{"parameterUnit":"m.s-1","parameterCategory":2,"la1":30.2991,"la2":30.254,"lo1":-89.0895,"lo2":-89.0444,"dy":0.0017,"dx":0.0017,"nx":28,"ny":28,"refTime":"2024-10-12T09:00:00:Z","depth":"0","parameterNumber":3,"parameterNumberName":"V-component_of_CURRENTS"},"data":[0,0,0,0,0,0,0,0,0,0,0,0,0,0,0,0,0,0,0,0,0,0,0,0,0,0,0,0,0,0,0,0,0,0,0,0,0,0,0,0,0,0,0,0,0,0,0,0,0,0,0,0,0,0,0,0,0,0,0.0006,0.0006,0,-0.0014,-0.0015,-0.0015,-0.0044,-0.0044,-0.0045,-0.0045,-0.0092,-0.0093,-0.0093,0,0,0,0,0,0,0,0,0,0,0,0,0,0.0028,0.0028,0.0006,0.0006,0.0006,-0.0014,-0.0015,-0.0015,-0.0044,-0.0044,-0.0045,-0.0046,-0.0092,-0.0093,-0.0093,0,0,0,0,0,0,0,0,0,0,0,0,0,0.0015,0.0028,0.0006,-0.0011,-0.0013,-0.0014,-0.0015,-0.0015,-0.0044,-0.0044,-0.0045,-0.0046,-0.0091,-0.0093,-0.0094,-0.0084,0,0,-0.0097,-0.0097,0,0,0,0,0,0,0,0,0.0015,0.0014,-0.0009,-0.001,-0.0012,-0.0028,-0.0024,-0.0039,-0.0043,-0.0032,-0.0045,-0.0046,-0.0073,-0.0075,-0.0076,-0.0086,-0.0088,-0.0097,-0.0098,-0.0098,-0.0099,0,0,0,0,0,0,0,0.0016,0.0015,-0.0001,-0.0009,-0.0011,-0.0016,-0.0019,-0.0027,-0.0047,-0.0033,-0.0035,-0.0038,-0.0074,-0.0075,-0.0078,-0.0089,-0.0097,-0.0098,-0.0099,-0.0099,-0.0075,-0.0073,0,0,0,0,0,0,0.0018,0.0016,-0.0001,-0.0002,-0.0001,-0.0016,-0.0019,-0.0022,-0.0047,-0.0051,-0.0037,-0.0039,-0.0073,-0.0076,-0.0079,-0.0053,-0.0098,-0.0099,-0.01,-0.0076,-0.0074,-0.0073,0,0,0,0,0,0,0.0019,0.0017,0.0,0.0006,0.0003,-0.0016,-0.0018,-0.0022,-0.0026,-0.005,-0.0055,-0.0039,-0.0074,-0.0078,-0.0073,-0.0056,-0.01,-0.0101,-0.0078,-0.0076,-0.0074,-0.0011,0,0,0,0,0,0,0.002,0.0018,0.0021,0.0006,0.0003,0.0005,-0.0017,-0.0021,-0.0027,-0.003,-0.0053,-0.0058,-0.0075,-0.0071,-0.0074,-0.0058,-0.0102,-0.0079,-0.0077,-0.0074,-0.0015,-0.0008,-0.0001,0,0,0,0,0,0.0021,0.0027,0.0021,0.0019,0.0006,0.0005,0.0004,-0.0012,-0.0026,-0.0021,-0.003,-0.0057,-0.0058,-0.0071,-0.0075,-0.0059,-0.008,-0.0077,-0.0075,-0.0018,-0.0009,-0.0001,0,0,0,0,0,0,0.0038,0.0025,0.0017,0.002,0.0015,0.0,0.0004,-0.0009,-0.0012,-0.0014,-0.004,-0.0045,-0.0036,-0.0051,-0.0065,-0.0043,-0.0074,-0.0072,-0.003,-0.0021,-0.0014,-0.0001,-0.0102,0,0,0,0,0,0.0044,0.0046,0.0033,0.0037,0.0036,0.0021,0.0019,0.0009,0.0002,-0.0001,-0.0017,-0.0026,-0.0025,-0.0027,-0.0033,-0.002,-0.0041,-0.0011,-0.0004,0.0002,0.0011,-0.0011,-0.0005,-0.0063,-0.0063,-0.0063,0,0,0.0052,0.0045,0.0046,0.0041,0.0036,0.0051,0.0018,0.002,0.0036,-0.0005,0.0012,-0.0005,-0.0016,0.0,0.0003,-0.0012,0.001,0.0006,0.0011,0.0017,-0.0007,-0.0001,0.0003,-0.0061,-0.0062,-0.0062,0,0,0.0073,0.0065,0.0076,0.0078,0.0075,0.0071,0.0073,0.0062,0.0061,0.0076,0.0053,0.0052,0.0049,0.0047,0.0047,0.009,0.0046,0.0084,0.0131,0.011,0.0114,0.0117,0.0106,0.0108,0.0089,0.0089,0.0089,0,0.0085,0.0096,0.008,0.0096,0.0107,0.0084,0.0109,0.0111,0.0103,0.011,0.0091,0.0091,0.0076,0.01,0.0118,0.0106,0.0086,0.0098,0.0118,0.012,0.0123,0.011,0.0111,0.0093,0.0092,0.0092,0.0092,0,0.0117,0.013,0.0139,0.0156,0.0167,0.0182,0.0186,0.0195,0.019,0.0185,0.0198,0.0178,0.0175,0.0173,0.0161,0.0176,0.0154,0.0125,0.0094,0.0132,0.0117,0.0117,0.0097,0.0096,0.0095,0.0094,0,0,0.0135,0.0157,0.0162,0.0186,0.0201,0.0217,0.0251,0.0273,0.0297,0.0282,0.0306,0.0304,0.0273,0.0271,0.0244,0.0233,0.0236,0.0192,0.019,0.0178,0.0193,0.0216,0.0218,0.0201,0.0201,0.0202,0.0178,0,0.0168,0.0212,0.0215,0.0271,0.0298,0.0301,0.0339,0.0357,0.0361,0.0377,0.0351,0.0357,0.0316,0.0311,0.0294,0.0252,0.0238,0.0245,0.0161,0.0159,0.0171,0.022,0.0242,0.0226,0.0178,0.0178,0.0178,0,0.0203,0.0229,0.0284,0.0337,0.035,0.038,0.0435,0.0462,0.0477,0.0477,0.0467,0.0436,0.0426,0.0376,0.0322,0.0325,0.0268,0.0229,0.0226,0.0227,0.0183,0.0178,0.0227,0.0074,0.0177,0.0177,0.0177,0,0.0235,0.0284,0.0331,0.0348,0.0399,0.0429,0.0457,0.0489,0.0521,0.0529,0.0542,0.0511,0.0499,0.0428,0.0358,0.033,0.0297,0.0241,0.0209,0.021,0.0204,0.0205,0.0093,0.0197,0.0197,0.0197,0.0197,0,0.0275,0.0317,0.0347,0.0377,0.0444,0.0463,0.0529,0.0552,0.0582,0.0626,0.0583,0.0606,0.0508,0.0476,0.0389,0.0323,0.0317,0.0236,0.0212,0.0229,0.0232,0.0077,-0.0,0.0196,0.0196,0.0197,0.0197,0,0.0311,0.0328,0.0388,0.044,0.046,0.0508,0.0574,0.0622,0.0636,0.0689,0.0691,0.0678,0.0652,0.0568,0.0473,0.0377,0.0241,0.0273,0.0313,0.0295,0.0111,0.0039,-0.0047,-0.0085,0.0224,0.0225,0.0225,0,0.0336,0.0367,0.0432,0.047,0.0495,0.0558,0.0611,0.0648,0.0696,0.074,0.0773,0.0765,0.0809,0.0698,0.0544,0.0426,0.0283,0.0316,0.0267,0.0124,0.0024,-0.002,-0.005,0.028,0.0281,0.0282,0.0282,0,0.0387,0.0404,0.0451,0.052,0.0578,0.0649,0.0716,0.0764,0.0812,0.0879,0.095,0.0992,0.0902,0.0836,0.0671,0.054,0.0235,0.0326,0.0158,0.0057,0.0021,-0.0033,0.0271,0.0289,0.0288,0.0288,0.0287,0.0287,0.0422,0.0461,0.051,0.0578,0.0647,0.0731,0.0797,0.0888,0.0997,0.1144,0.1137,0.1297,0.11,0.0908,0.0694,0.0284,0.0292,0.0149,0.0073,0.0041,0.0007,0.0343,0.0346,0.0346,0.0345,0.0345,0.0345,0,0.0457,0.0498,0.0567,0.0647,0.0722,0.0751,0.0866,0.096,0.1115,0.1342,0.1473,0.1523,0.1271,0.0927,0.0378,0.0085,-0.0031,-0.0097,-0.0188,-0.0206,0.0068,0.0071,0.0038,0.0038,0.0039,0.0039,0.0039,0.0039,0.0479,0.0538,0.057,0.0689,0.075,0.0859,0.0931,0.1107,0.13,0.1623,0.1813,0.1927,0.1616,0.0601,-0.0091,-0.0243,-0.0445,-0.046,-0.0564,-0.0434,-0.0419,-0.0404,-0.0423,-0.0558,-0.0558,-0.0795,-0.0797,-0.08]}],[{"header":{"parameterUnit":"m.s-1","parameterCategory":2,"la1":30.2991,"la2":30.254,"lo1":-89.0895,"lo2":-89.0444,"dy":0.0017,"dx":0.0017,"nx":28,"ny":28,"refTime":"2024-10-12T09:00:00:Z","depth":"2","parameterNumber":2,"parameterNumberName":"U-component_of_CURRENTS"},"data":[0,0,0,0,0,0,0,0,0,0,0,0,0,0,0,0,0,0,0,0,0,0,0,0,0,0,0,0,0,0,0,0,0,0,0,0,0,0,0,0,0,0,0,0,0,0,0,0,0,0,0,0,0,0,0,0,0,0,0.274,0.2741,0,0.2797,0.2797,0.2798,0.2805,0.2805,0.2804,0.2804,0.2811,0.2811,0.2812,0,0,0,0,0,0,0,0,0,0,0,0,0,0.2683,0.2684,0.274,0.2741,0.2742,0.2797,0.2797,0.2798,0.2805,0.2805,0.2804,0.2804,0.2811,0.2811,0.2812,0,0,0,0,0,0,0,0,0,0,0,0,0,0.2719,0.2684,0.274,0.2753,0.2755,0.2797,0.2797,0.2798,0.2805,0.2805,0.2804,0.2804,0.2811,0.2811,0.2812,0.2828,0,0,0.2815,0.2815,0,0,0,0,0,0,0,0,0.2717,0.2721,0.2751,0.2753,0.2755,0.2795,0.278,0.2806,0.2805,0.2784,0.2804,0.2803,0.2803,0.2804,0.2814,0.2829,0.2829,0.2815,0.2815,0.2815,0.2816,0,0,0,0,0,0,0,0.2714,0.2719,0.2761,0.2752,0.2754,0.2772,0.2776,0.2785,0.2793,0.2786,0.2787,0.2797,0.2803,0.2813,0.2814,0.2829,0.2815,0.2815,0.2816,0.2816,0.2907,0.2909,0,0,0,0,0,0,0.2709,0.2716,0.2759,0.2762,0.2736,0.2774,0.2778,0.2781,0.2795,0.2797,0.2797,0.2797,0.2812,0.2813,0.2814,0.2871,0.2815,0.2816,0.2817,0.2905,0.2907,0.2909,0,0,0,0,0,0,0.2708,0.2712,0.2757,0.2742,0.275,0.2775,0.2779,0.2783,0.2807,0.2804,0.2805,0.282,0.2812,0.2813,0.2838,0.2869,0.2817,0.2817,0.2902,0.2905,0.2908,0.2959,0,0,0,0,0,0,0.2706,0.2711,0.2722,0.2742,0.275,0.2783,0.278,0.2784,0.2814,0.2814,0.2823,0.2822,0.2811,0.2837,0.2838,0.2869,0.2818,0.29,0.2904,0.2907,0.2955,0.2964,0.2971,0,0,0,0,0,0.2704,0.2713,0.2722,0.2728,0.276,0.2784,0.279,0.2805,0.2816,0.2826,0.2839,0.2823,0.2861,0.2839,0.284,0.2872,0.2898,0.2903,0.2907,0.2952,0.2962,0.2971,0,0,0,0,0,0,0.27,0.2715,0.2725,0.2741,0.2764,0.2786,0.2803,0.2819,0.284,0.2844,0.2842,0.2843,0.2878,0.2873,0.2848,0.2912,0.288,0.2885,0.2913,0.2923,0.2931,0.2926,0.2819,0,0,0,0,0,0.2704,0.2709,0.2734,0.2748,0.2763,0.279,0.2807,0.2817,0.2837,0.2847,0.2848,0.2865,0.2898,0.2907,0.2919,0.295,0.2973,0.2976,0.2984,0.299,0.299,0.3087,0.3104,0.2923,0.2923,0.2923,0,0,0.2705,0.2717,0.272,0.2748,0.2769,0.2793,0.2798,0.2825,0.285,0.2843,0.2871,0.2888,0.2913,0.2949,0.2965,0.2947,0.3051,0.2996,0.3001,0.2997,0.3094,0.3111,0.3127,0.2926,0.2926,0.2925,0,0,0.2706,0.2725,0.273,0.2753,0.2786,0.2804,0.2817,0.2842,0.286,0.2889,0.2906,0.2946,0.2965,0.3,0.3022,0.3085,0.309,0.3089,0.3123,0.3218,0.3234,0.3248,0.3284,0.3301,0.3092,0.3092,0.3092,0,0.2713,0.2721,0.2738,0.2758,0.278,0.2812,0.2833,0.2864,0.289,0.2913,0.2898,0.2982,0.2994,0.3081,0.3099,0.3103,0.3138,0.3083,0.3229,0.3243,0.3257,0.3291,0.3309,0.3095,0.3095,0.3095,0.3094,0,0.2715,0.2734,0.2744,0.2775,0.2802,0.2825,0.2867,0.2893,0.2916,0.2944,0.3015,0.3046,0.3096,0.3118,0.3123,0.3234,0.322,0.3229,0.3203,0.3278,0.3308,0.3326,0.31,0.3098,0.3098,0.3097,0,0,0.2695,0.2735,0.274,0.2755,0.2813,0.2827,0.2884,0.2938,0.2978,0.3017,0.3076,0.3148,0.317,0.3199,0.3229,0.3305,0.3423,0.3305,0.3308,0.3335,0.3602,0.3332,0.3325,0.3467,0.3471,0.3474,0.3578,0,0.2694,0.2717,0.2744,0.2777,0.2797,0.2849,0.2894,0.2951,0.2999,0.3058,0.3137,0.3196,0.3205,0.3235,0.3322,0.3403,0.3475,0.3391,0.3529,0.3532,0.328,0.3339,0.3101,0.3151,0.3596,0.3599,0.3601,0,0.2687,0.2703,0.2727,0.2772,0.2787,0.2812,0.2886,0.2931,0.304,0.3079,0.3173,0.3228,0.3355,0.3343,0.3535,0.3484,0.3544,0.3598,0.3604,0.3344,0.3294,0.3153,0.3167,0.3631,0.3628,0.3626,0.3624,0,0.2649,0.269,0.2702,0.2721,0.2781,0.2803,0.2838,0.2933,0.2978,0.31,0.3146,0.3299,0.3369,0.3503,0.3601,0.359,0.3787,0.379,0.3604,0.3585,0.3399,0.3354,0.3925,0.3925,0.3925,0.3925,0.3924,0,0.2634,0.2646,0.2679,0.2687,0.2705,0.2763,0.2801,0.2864,0.2964,0.3027,0.3152,0.323,0.3418,0.3541,0.3634,0.3649,0.3823,0.3605,0.3599,0.3402,0.3358,0.3787,0.377,0.3929,0.3928,0.3927,0.3926,0,0.2598,0.2622,0.2635,0.2677,0.2686,0.2698,0.2758,0.2788,0.2895,0.2986,0.3029,0.3208,0.3341,0.3487,0.3687,0.364,0.3717,0.3682,0.3389,0.3341,0.3444,0.3429,0.3482,0.3473,0.3466,0.346,0.3455,0,0.2583,0.2584,0.2606,0.2598,0.2613,0.2634,0.2646,0.2741,0.2783,0.2965,0.3005,0.3156,0.3222,0.3359,0.334,0.3392,0.3577,0.3155,0.306,0.3412,0.3403,0.3399,0.3393,0.2865,0.2855,0.2847,0.2841,0,0.2552,0.2556,0.2555,0.2532,0.2529,0.2532,0.2563,0.2591,0.2716,0.2778,0.2879,0.2944,0.3022,0.2932,0.293,0.2938,0.3112,0.2982,0.3513,0.2953,0.2822,0.2814,0.2832,0.2772,0.2779,0.2784,0.2788,0.279,0.2515,0.2494,0.2472,0.2442,0.2435,0.2413,0.2382,0.2423,0.2448,0.2459,0.2619,0.2598,0.2637,0.2458,0.2436,0.2418,0.2606,0.2541,0.2571,0.2609,0.2458,0.2314,0.2141,0.2144,0.2147,0.2149,0.2151,0,0.2434,0.2406,0.2378,0.2318,0.2256,0.2301,0.2302,0.222,0.2178,0.2196,0.2166,0.1968,0.1905,0.2038,0.1882,0.1824,0.1884,0.1788,0.1905,0.1971,0.203,0.1857,0.1379,0.1377,0.1375,0.1373,0,0,0.2384,0.2307,0.2276,0.2139,0.2106,0.1995,0.1972,0.1853,0.1826,0.1664,0.1616,0.1628,0.1871,0.1548,0.1519,0.1457,0.1702,0.1388,0.2002,0.22,0.2257,0.2446,0.2247,0,0,0,0,0]},{"header":{"parameterUnit":"m.s-1","parameterCategory":2,"la1":30.2991,"la2":30.254,"lo1":-89.0895,"lo2":-89.0444,"dy":0.0017,"dx":0.0017,"nx":28,"ny":28,"refTime":"2024-10-12T09:00:00:Z","depth":"2","parameterNumber":3,"parameterNumberName":"V-component_of_CURRENTS"},"data":[0,0,0,0,0,0,0,0,0,0,0,0,0,0,0,0,0,0,0,0,0,0,0,0,0,0,0,0,0,0,0,0,0,0,0,0,0,0,0,0,0,0,0,0,0,0,0,0,0,0,0,0,0,0,0,0,0,0,0.0315,0.0314,0,0.0253,0.0252,0.0251,0.0178,0.0178,0.0177,0.0176,0.0059,0.0057,0.0055,0,0,0,0,0,0,0,0,0,0,0,0,0,0.0336,0.0336,0.0315,0.0314,0.0314,0.0253,0.0252,0.0251,0.0179,0.0177,0.0176,0.0175,0.006,0.0057,0.0055,0,0,0,0,0,0,0,0,0,0,0,0,0,0.0304,0.0336,0.0315,0.0272,0.0268,0.0253,0.0252,0.0251,0.0179,0.0177,0.0176,0.0175,0.0061,0.0058,0.0054,0.0061,0,0,0.0044,0.0043,0,0,0,0,0,0,0,0,0.0306,0.0303,0.0279,0.0275,0.027,0.0224,0.0217,0.0185,0.0179,0.021,0.0176,0.0174,0.0112,0.0104,0.0093,0.0055,0.005,0.0044,0.0042,0.004,0.0039,0,0,0,0,0,0,0,0.0308,0.0305,0.0288,0.0278,0.0273,0.0244,0.0238,0.0211,0.0167,0.0207,0.0202,0.02,0.0109,0.0097,0.009,0.0049,0.0044,0.0041,0.0039,0.0037,0.0006,0.0007,0,0,0,0,0,0,0.0324,0.0308,0.029,0.0286,0.0288,0.0245,0.0238,0.0238,0.0168,0.0157,0.0201,0.0197,0.0103,0.0094,0.0085,0.0105,0.004,0.0037,0.0035,0.0005,0.0006,0.0008,0,0,0,0,0,0,0.0325,0.0323,0.0293,0.0297,0.0291,0.0247,0.0247,0.0238,0.0223,0.0164,0.0151,0.0195,0.0102,0.009,0.0067,0.0099,0.0036,0.0033,0.0004,0.0005,0.0007,0.0133,0,0,0,0,0,0,0.0326,0.0324,0.0328,0.0299,0.0292,0.0295,0.0248,0.0238,0.0225,0.0218,0.0155,0.0143,0.01,0.0073,0.0064,0.0093,0.003,0.0002,0.0004,0.0007,0.0127,0.0139,0.0149,0,0,0,0,0,0.0327,0.0343,0.0329,0.0327,0.03,0.0296,0.0291,0.0252,0.0226,0.0231,0.0187,0.0145,0.008,0.0071,0.006,0.0089,0.0001,0.0004,0.0006,0.0122,0.0137,0.0148,0,0,0,0,0,0,0.0352,0.0336,0.032,0.0329,0.0319,0.0285,0.0284,0.0261,0.0231,0.0217,0.0159,0.0145,0.014,0.0096,0.0087,0.0086,0.0035,0.0035,0.0127,0.0139,0.015,0.0166,0.0027,0,0,0,0,0,0.0363,0.0368,0.035,0.0357,0.0355,0.0321,0.0313,0.029,0.0261,0.0245,0.0203,0.0161,0.0145,0.0126,0.0098,0.0095,0.0064,0.0106,0.0117,0.0127,0.0132,0.0134,0.0146,0.0017,0.0017,0.0016,0,0,0.0373,0.0366,0.0367,0.0362,0.0346,0.0361,0.0312,0.0307,0.032,0.0238,0.0235,0.0198,0.0153,0.0154,0.0148,0.0119,0.0145,0.013,0.0139,0.0139,0.0138,0.015,0.0162,0.0018,0.0018,0.0018,0,0,0.0404,0.0392,0.041,0.0411,0.04,0.0387,0.0391,0.0364,0.0351,0.0347,0.0301,0.0286,0.0241,0.0227,0.0213,0.0265,0.0206,0.025,0.0314,0.0316,0.0327,0.0336,0.0309,0.0315,0.0252,0.0252,0.0252,0,0.0416,0.0439,0.0416,0.0439,0.0449,0.0407,0.0438,0.0427,0.0395,0.0403,0.0358,0.033,0.0283,0.0311,0.0319,0.0293,0.0268,0.0272,0.0332,0.0341,0.0348,0.0318,0.0323,0.0258,0.0258,0.0257,0.0256,0,0.0467,0.0485,0.0498,0.0516,0.0527,0.0543,0.0535,0.0539,0.0515,0.0504,0.0515,0.0458,0.0443,0.0429,0.0382,0.042,0.0377,0.0353,0.0305,0.0369,0.0332,0.0335,0.0267,0.0265,0.0263,0.0262,0,0,0.0491,0.0528,0.0531,0.0558,0.057,0.0586,0.0621,0.0648,0.068,0.0642,0.0686,0.0643,0.0607,0.0588,0.0538,0.0525,0.0544,0.0457,0.0454,0.0439,0.0528,0.0423,0.0415,0.0531,0.0532,0.0533,0.048,0,0.0536,0.0598,0.0608,0.0672,0.0704,0.0701,0.0744,0.0761,0.076,0.0788,0.075,0.0758,0.0672,0.0664,0.0646,0.058,0.0557,0.0559,0.0459,0.0455,0.0363,0.0418,0.0377,0.032,0.0482,0.0482,0.0483,0,0.0583,0.062,0.069,0.0758,0.0775,0.0807,0.0874,0.0907,0.094,0.094,0.0944,0.0907,0.0897,0.0806,0.0734,0.0738,0.0637,0.0571,0.0567,0.0427,0.0357,0.0281,0.0318,0.0486,0.0486,0.0486,0.0486,0,0.0606,0.0679,0.0739,0.0759,0.0827,0.0864,0.0901,0.0947,0.0994,0.1033,0.1064,0.1046,0.1034,0.0941,0.0796,0.0766,0.0705,0.0651,0.0462,0.0452,0.0375,0.0356,0.059,0.059,0.059,0.0591,0.0591,0,0.0649,0.0694,0.0751,0.0781,0.0864,0.0899,0.0986,0.102,0.1089,0.1169,0.1136,0.119,0.1064,0.1012,0.0862,0.068,0.0759,0.048,0.0441,0.0414,0.04,0.0507,0.0498,0.0589,0.0589,0.0589,0.059,0,0.0655,0.0694,0.0763,0.0841,0.0871,0.0923,0.103,0.1102,0.1153,0.1259,0.1277,0.13,0.1231,0.1087,0.0939,0.0756,0.06,0.0507,0.0466,0.0421,0.0321,0.032,0.0288,0.0284,0.0281,0.0278,0.0275,0,0.0662,0.0698,0.0788,0.0837,0.087,0.0955,0.1029,0.1115,0.121,0.1335,0.1405,0.1376,0.1383,0.1128,0.0805,0.0527,0.0554,0.0291,0.0211,0.033,0.0295,0.0298,0.0301,0.016,0.0157,0.0154,0.0152,0,0.0675,0.07,0.0757,0.085,0.0929,0.1039,0.1156,0.125,0.1378,0.1488,0.1629,0.1643,0.1359,0.1062,0.0646,0.0455,0.0332,0.0223,0.0403,0.023,0.0201,0.0169,0.0178,0.013,0.0132,0.0134,0.0135,0.0136,0.0672,0.071,0.0781,0.0875,0.0974,0.1124,0.1236,0.1396,0.1576,0.1693,0.1704,0.1653,0.131,0.0709,0.0435,0.0118,0.0124,-0.0006,0.0006,0.002,0.0001,-0.0033,-0.0152,-0.0152,-0.0151,-0.0151,-0.015,0,0.067,0.0724,0.081,0.0937,0.1057,0.1103,0.1327,0.1466,0.1703,0.1686,0.1723,0.1336,0.0989,0.0672,0.0136,-0.017,-0.0149,-0.0214,-0.0125,-0.0105,-0.0086,-0.0105,-0.0289,-0.029,-0.029,-0.029,0,0,0.0671,0.0742,0.0797,0.0982,0.1077,0.1265,0.1402,0.1607,0.1681,0.1684,0.155,0.1284,0.0969,0.054,0.0181,-0.0043,0.0003,-0.0085,0.0039,0.02,0.0224,0.0024,0.0015,0,0,0,0,0]}],[{"header":{"parameterUnit":"m.s-1","parameterCategory":2,"la1":30.2991,"la2":30.254,"lo1":-89.0895,"lo2":-89.0444,"dy":0.0017,"dx":0.0017,"nx":28,"ny":28,"refTime":"2024-10-12T09:00:00:Z","depth":"4","parameterNumber":2,"parameterNumberName":"U-component_of_CURRENTS"},"data":[0,0,0,0,0,0,0,0,0,0,0,0,0,0,0,0,0,0,0,0,0,0,0,0,0,0,0,0,0,0,0,0,0,0,0,0,0,0,0,0,0,0,0,0,0,0,0,0,0,0,0,0,0,0,0,0,0,0,0.0616,0.0616,0,0.0629,0.0629,0.0629,0.0658,0.0659,0.066,0.066,0.0686,0.0686,0.0686,0,0,0,0,0,0,0,0,0,0,0,0,0,0.0574,0.0575,0.0616,0.0616,0.0617,0.0629,0.0629,0.0629,0.0658,0.0659,0.066,0.0661,0.0686,0.0686,0.0686,0,0,0,0,0,0,0,0,0,0,0,0,0,0.0589,0.0575,0.0616,0.0634,0.0636,0.0629,0.0629,0.0629,0.0658,0.0659,0.066,0.0661,0.0686,0.0686,0.0686,0.0664,0,0,0.0686,0.0686,0,0,0,0,0,0,0,0,0.0588,0.059,0.0631,0.0633,0.0635,0.0645,0.0624,0.0642,0.0658,0.0648,0.066,0.0662,0.0674,0.0675,0.0672,0.0665,0.0666,0.0686,0.0686,0.0686,0.0686,0,0,0,0,0,0,0,0.0587,0.0589,0.062,0.0631,0.0633,0.0627,0.063,0.0627,0.0653,0.0649,0.0651,0.0655,0.0675,0.0672,0.0673,0.0667,0.0686,0.0686,0.0686,0.0686,0.0723,0.0724,0,0,0,0,0,0,0.059,0.0589,0.0619,0.062,0.0615,0.0627,0.0631,0.0639,0.0653,0.0657,0.0654,0.0656,0.0672,0.0673,0.0674,0.0754,0.0686,0.0686,0.0686,0.0722,0.0723,0.0724,0,0,0,0,0,0,0.0589,0.0592,0.0619,0.0606,0.0609,0.0627,0.0636,0.0639,0.0654,0.0657,0.0661,0.0669,0.0673,0.0674,0.0717,0.0751,0.0686,0.0686,0.0721,0.0722,0.0724,0.0846,0,0,0,0,0,0,0.0587,0.0592,0.0607,0.0606,0.061,0.0631,0.0635,0.0638,0.0655,0.0658,0.0671,0.0673,0.0674,0.0718,0.0717,0.075,0.0686,0.072,0.0722,0.0723,0.0841,0.0851,0.0861,0,0,0,0,0,0.0586,0.0594,0.0608,0.0612,0.0628,0.0631,0.0633,0.0647,0.0654,0.0664,0.0696,0.0674,0.0728,0.0719,0.0719,0.0752,0.0719,0.0721,0.0723,0.0836,0.0849,0.086,0,0,0,0,0,0,0.0567,0.0598,0.0613,0.0627,0.0639,0.0637,0.0651,0.0654,0.0682,0.07,0.0697,0.0703,0.0752,0.0727,0.0717,0.0763,0.0714,0.0716,0.08,0.0812,0.0822,0.0818,0.0686,0,0,0,0,0,0.0575,0.0604,0.0616,0.063,0.064,0.0648,0.0655,0.0668,0.0686,0.07,0.0711,0.0727,0.0754,0.0766,0.0777,0.0803,0.0771,0.0817,0.0827,0.0836,0.083,0.0826,0.0835,0.0732,0.0731,0.0731,0,0,0.0571,0.0593,0.0608,0.0631,0.0644,0.0659,0.0655,0.0677,0.0704,0.0698,0.0747,0.0767,0.0769,0.0817,0.0832,0.0804,0.085,0.0838,0.0847,0.0836,0.0829,0.0839,0.0848,0.0733,0.0733,0.0732,0,0,0.0575,0.0601,0.0628,0.0645,0.0677,0.068,0.0689,0.0707,0.0738,0.0785,0.0797,0.0833,0.0861,0.0875,0.0884,0.0942,0.0908,0.095,0.0998,0.0996,0.1004,0.1012,0.0998,0.1002,0.095,0.0951,0.0951,0,0.0569,0.0604,0.0631,0.0659,0.0677,0.069,0.0712,0.0738,0.0773,0.0808,0.0817,0.0886,0.0883,0.0942,0.0975,0.0964,0.0962,0.0962,0.1011,0.1017,0.1022,0.1006,0.101,0.0957,0.0956,0.0956,0.0955,0,0.0594,0.0625,0.0639,0.0685,0.0706,0.0727,0.0765,0.0797,0.0834,0.0867,0.0951,0.0972,0.1009,0.1019,0.1023,0.1069,0.1057,0.1032,0.0986,0.1041,0.1019,0.1021,0.0966,0.0963,0.0962,0.096,0,0,0.0562,0.0642,0.0647,0.0678,0.0727,0.0739,0.0796,0.0846,0.0901,0.0955,0.1025,0.1079,0.1107,0.1117,0.113,0.113,0.1169,0.1113,0.111,0.1109,0.1176,0.1112,0.1107,0.1176,0.1177,0.1177,0.1151,0,0.0569,0.0625,0.0665,0.0708,0.0735,0.0776,0.0838,0.0897,0.0955,0.1027,0.1075,0.1159,0.1144,0.1198,0.1195,0.1177,0.1179,0.1178,0.1113,0.111,0.1055,0.1109,0.118,0.1152,0.1152,0.1152,0.1153,0,0.0575,0.0615,0.0669,0.0746,0.0765,0.0806,0.0896,0.0955,0.106,0.1123,0.1198,0.1247,0.1288,0.1267,0.1251,0.1265,0.1232,0.1205,0.1202,0.1096,0.105,0.108,0.1155,0.1155,0.1155,0.1154,0.1154,0,0.0543,0.0609,0.0655,0.0679,0.0772,0.0825,0.0886,0.0996,0.1064,0.1199,0.1253,0.1323,0.1367,0.1337,0.1287,0.129,0.1247,0.1227,0.1136,0.113,0.114,0.1132,0.1211,0.1211,0.1211,0.1211,0.1211,0,0.0528,0.056,0.0655,0.0683,0.0759,0.0841,0.0941,0.1022,0.1145,0.121,0.1314,0.1352,0.1394,0.1376,0.1314,0.1224,0.1262,0.1149,0.1123,0.1193,0.1191,0.1142,0.1135,0.121,0.121,0.1211,0.1211,0,0.0487,0.0545,0.0598,0.0708,0.0751,0.0816,0.0959,0.1029,0.1158,0.1235,0.1289,0.1391,0.1373,0.1366,0.132,0.1254,0.1174,0.1133,0.1212,0.119,0.1055,0.1054,0.1034,0.1032,0.103,0.1028,0.1027,0,0.0476,0.0499,0.0605,0.0654,0.0713,0.0817,0.0897,0.1034,0.1099,0.1213,0.1237,0.13,0.1332,0.1216,0.1216,0.1129,0.1104,0.1084,0.1073,0.1061,0.1039,0.1041,0.1042,0.1023,0.1023,0.1022,0.1022,0,0.0435,0.0477,0.0515,0.0616,0.0698,0.077,0.0888,0.0925,0.1054,0.1157,0.1177,0.1184,0.117,0.1153,0.1126,0.1042,0.1111,0.1063,0.1066,0.1055,0.1048,0.1028,0.1032,0.1015,0.1016,0.1017,0.1017,0,0.0401,0.0401,0.046,0.0543,0.064,0.0703,0.0773,0.0846,0.0914,0.1053,0.1035,0.1068,0.1144,0.1103,0.1036,0.1002,0.0977,0.095,0.0959,0.0967,0.0957,0.0939,0.0854,0,0,0,0,0,0.0364,0.0345,0.0395,0.0456,0.0561,0.0623,0.0752,0.082,0.0923,0.0917,0.0986,0.0961,0.0937,0.0961,0.0903,0.0974,0.0962,0.0905,0.0932,0.0976,0.0984,0.0979,0,0,0,0,0,0,0.0323,0.0347,0.034,0.0375,0.0424,0.0506,0.0592,0.067,0.0692,0.0807,0.0803,0.0893,0.0881,0.0932,0.0872,0.0877,0.0875,0.0938,0.0936,0.0972,0.0979,0.0986,0.0983,0,0,0,0,0]},{"header":{"parameterUnit":"m.s-1","parameterCategory":2,"la1":30.2991,"la2":30.254,"lo1":-89.0895,"lo2":-89.0444,"dy":0.0017,"dx":0.0017,"nx":28,"ny":28,"refTime":"2024-10-12T09:00:00:Z","depth":"4","parameterNumber":3,"parameterNumberName":"V-component_of_CURRENTS"},"data":[0,0,0,0,0,0,0,0,0,0,0,0,0,0,0,0,0,0,0,0,0,0,0,0,0,0,0,0,0,0,0,0,0,0,0,0,0,0,0,0,0,0,0,0,0,0,0,0,0,0,0,0,0,0,0,0,0,0,0.0227,0.0227,0,0.019,0.019,0.0189,0.0168,0.0168,0.0168,0.0168,0.0102,0.01,0.0098,0,0,0,0,0,0,0,0,0,0,0,0,0,0.025,0.0249,0.0227,0.0227,0.0227,0.0191,0.019,0.0189,0.0168,0.0168,0.0168,0.0168,0.0103,0.0101,0.0098,0,0,0,0,0,0,0,0,0,0,0,0,0,0.0226,0.0249,0.0227,0.0214,0.0213,0.0191,0.019,0.0189,0.0167,0.0168,0.0168,0.0168,0.0104,0.0101,0.0098,0.0074,0,0,0.0089,0.0088,0,0,0,0,0,0,0,0,0.0227,0.0225,0.0216,0.0215,0.0213,0.0187,0.0174,0.015,0.0167,0.0181,0.0168,0.0169,0.013,0.0125,0.0113,0.0071,0.0068,0.0089,0.0087,0.0086,0.0085,0,0,0,0,0,0,0,0.0229,0.0226,0.0209,0.0216,0.0214,0.02,0.0197,0.0169,0.0151,0.018,0.0179,0.018,0.0128,0.0116,0.0111,0.0067,0.0089,0.0086,0.0084,0.0083,-0.0014,-0.0015,0,0,0,0,0,0,0.0241,0.0228,0.0211,0.0209,0.0225,0.02,0.0196,0.0192,0.0152,0.0147,0.018,0.0179,0.0121,0.0115,0.0109,0.0073,0.0086,0.0083,0.0081,-0.0014,-0.0015,-0.0015,0,0,0,0,0,0,0.0242,0.024,0.0212,0.022,0.0216,0.02,0.0195,0.0192,0.0185,0.0153,0.0147,0.0178,0.0121,0.0113,0.0082,0.007,0.0082,0.0079,-0.0013,-0.0014,-0.0015,0.0004,0,0,0,0,0,0,0.0242,0.024,0.0244,0.0221,0.0216,0.02,0.0195,0.0191,0.0186,0.0185,0.0149,0.0143,0.012,0.0087,0.0079,0.0067,0.0077,-0.0011,-0.0013,-0.0015,0.0005,0.0004,0.0003,0,0,0,0,0,0.0243,0.0246,0.0245,0.0243,0.0221,0.02,0.0196,0.0183,0.0186,0.0179,0.0155,0.0145,0.0071,0.0084,0.0075,0.0061,-0.0011,-0.0013,-0.0015,0.0005,0.0004,0.0003,0,0,0,0,0,0,0.0258,0.0244,0.0242,0.024,0.0224,0.0198,0.0198,0.0188,0.0164,0.0167,0.0136,0.0127,0.0095,0.0074,0.0089,0.0027,0.0027,0.0024,0.0045,0.0044,0.0043,0.0053,0.0074,0,0,0,0,0,0.0264,0.0262,0.0244,0.0243,0.024,0.0221,0.0214,0.0203,0.018,0.0171,0.0144,0.0113,0.0078,0.006,0.0028,-0.0003,-0.0027,-0.0019,-0.002,-0.002,-0.0019,-0.0074,-0.0079,-0.0022,-0.0022,-0.0022,0,0,0.0272,0.0263,0.0264,0.0247,0.0237,0.0226,0.0216,0.0208,0.0195,0.0166,0.0143,0.0111,0.0069,0.0032,0.0015,0.0015,-0.0048,-0.0023,-0.0023,-0.0022,-0.0076,-0.0082,-0.0087,-0.0023,-0.0023,-0.0023,0,0,0.0281,0.0278,0.0279,0.0266,0.0254,0.0237,0.0238,0.0213,0.0201,0.0173,0.0146,0.0107,0.0062,0.0022,-0.0002,-0.0028,-0.0049,-0.0036,-0.0034,-0.0086,-0.0091,-0.0096,-0.0123,-0.013,-0.0038,-0.0038,-0.0038,0,0.0288,0.0288,0.0275,0.027,0.0264,0.0245,0.024,0.0221,0.0187,0.0172,0.017,0.0087,0.0054,-0.0002,-0.0012,-0.003,-0.0052,-0.0023,-0.0086,-0.0092,-0.0097,-0.0124,-0.0132,-0.0037,-0.0037,-0.0037,-0.0037,0,0.0296,0.0296,0.0296,0.0282,0.027,0.0264,0.0239,0.0222,0.0208,0.0185,0.0136,0.0085,0.0037,0.0014,-0.0006,-0.0063,-0.0064,-0.0078,-0.0079,-0.0101,-0.0128,-0.0137,-0.0036,-0.0036,-0.0037,-0.0037,0,0,0.0306,0.0303,0.0303,0.0303,0.0278,0.0269,0.0247,0.0218,0.0204,0.0164,0.0137,0.0067,0.0046,0.0017,-0.0021,-0.0071,-0.0125,-0.0085,-0.0088,-0.0103,-0.0224,-0.0195,-0.0202,-0.0149,-0.0151,-0.0152,-0.0224,0,0.0315,0.032,0.0308,0.0305,0.0305,0.0277,0.0263,0.0233,0.0199,0.0166,0.011,0.0078,0.0046,0.0029,-0.0031,-0.0109,-0.0149,-0.0103,-0.0208,-0.0211,-0.0176,-0.0212,-0.0158,-0.0231,-0.0233,-0.0234,-0.0235,0,0.0326,0.0328,0.0337,0.0326,0.0324,0.0322,0.029,0.0272,0.0219,0.0196,0.0142,0.0104,0.0025,0.0013,-0.0129,-0.0097,-0.0151,-0.0207,-0.0212,-0.0198,-0.0199,-0.0209,-0.0252,-0.025,-0.0249,-0.0248,-0.0247,0,0.035,0.0344,0.0358,0.0354,0.0339,0.0341,0.0334,0.029,0.028,0.0224,0.0204,0.0108,0.0071,-0.0034,-0.0141,-0.0138,-0.0288,-0.03,-0.0321,-0.0319,-0.0329,-0.0324,-0.0382,-0.0382,-0.0382,-0.0382,-0.0381,0,0.036,0.0367,0.038,0.0387,0.0405,0.0384,0.0389,0.0361,0.033,0.0309,0.0236,0.019,0.0058,-0.004,-0.0141,-0.026,-0.0289,-0.0326,-0.0343,-0.0318,-0.0311,-0.0335,-0.0329,-0.0384,-0.0384,-0.0383,-0.0383,0,0.0376,0.0385,0.0402,0.0412,0.0422,0.0439,0.045,0.0446,0.0411,0.0376,0.0368,0.0253,0.0115,-0.0014,-0.0183,-0.0245,-0.0367,-0.0389,-0.0338,-0.035,-0.0361,-0.0353,-0.0436,-0.0435,-0.0435,-0.0435,-0.0435,0,0.0384,0.0398,0.0434,0.0462,0.0474,0.0501,0.0521,0.05,0.0493,0.04,0.0386,0.0264,0.0172,-0.0047,-0.0184,-0.0359,-0.0371,-0.041,-0.0403,-0.0362,-0.0371,-0.0363,-0.0355,-0.0435,-0.0435,-0.0434,-0.0434,0,0.0388,0.0411,0.0425,0.0493,0.0532,0.055,0.0576,0.0579,0.0533,0.0509,0.0395,0.0271,0.0123,-0.0048,-0.0162,-0.0294,-0.0384,-0.0408,-0.041,-0.0404,-0.0361,-0.0369,-0.0361,-0.0434,-0.0434,-0.0434,-0.0434,0,0.0393,0.0402,0.0441,0.0495,0.055,0.057,0.0583,0.0567,0.0552,0.0467,0.0426,0.0248,0.016,-0.0014,-0.0143,-0.025,-0.0279,-0.0296,-0.0304,-0.0306,-0.0245,-0.0171,-0.0206,0,0,0,0,0,0.0389,0.0395,0.044,0.0469,0.0533,0.0564,0.0598,0.0602,0.0573,0.0508,0.0469,0.0325,0.0117,0.0017,-0.0086,-0.0142,-0.0296,-0.0265,-0.0318,-0.043,-0.0431,-0.0378,0,0,0,0,0,0,0.0378,0.0413,0.0419,0.045,0.0481,0.0518,0.0549,0.0532,0.0501,0.0468,0.0361,0.0311,0.0113,0.0165,-0.0093,-0.0127,-0.0169,-0.0359,-0.036,-0.0429,-0.043,-0.0431,-0.0376,0,0,0,0,0]}]]